Simultaneous Nadir Overpasses (SNOs) Predictions

Prediction of SNOs between GOES-17 and METOP-C Satellite Orbit:

Table of predicted SNOs for the next 14.0 days since TLE Epoch: 5/14/2022
Index Date Time (GOES-17) GOES-17 Lat,Lon METOP-C Lat,Lon Distance(km) Time Diff (sec)
1 05/15/2022 06:55:22 -0.04,-137.20 -0.79,-140.58 385.56 80
2 05/16/2022 06:32:01 -0.04,-137.20 0.30,-135.58 183.48 80
3 05/17/2022 18:50:52 0.04,-137.19 0.68,-140.15 336.36 80
4 05/18/2022 18:32:51 0.03,-137.18 -0.42,-135.15 232.08 80
5 05/20/2022 06:51:51 -0.02,-137.17 -0.58,-139.75 293.83 80
6 05/21/2022 06:28:31 -0.02,-137.16 0.52,-134.75 274.26 80
7 05/22/2022 18:47:20 0.02,-137.14 0.50,-139.30 246.43 80
8 05/23/2022 18:29:20 0.02,-137.13 -0.60,-134.30 321.77 80
9 05/25/2022 06:48:20 -0.01,-137.11 -0.40,-138.90 204.21 80
10 05/26/2022 06:25:00 -0.01,-137.10 0.70,-133.91 363.80 80
11 05/27/2022 18:43:49 0.01,-137.08 0.30,-138.46 157.34 80
